Regional Weather Roundup
Issued by NWS Northern Indiana

Home | Current Version | Previous Version | Text Only | Print | Product List | Glossary Off
Versions: 1 2 3 4 5 6 7 8 9 10 11 12 13 14 15 16 17 18 19 20 21 22 23 24 25 26 27 28 29 30 31 32 33 34 35 36 37 38 39 40 41 42 43 44 45 46 47 48 49 50

000
ASUS43 KIWX 140800
RWRIWX

KIWX WEATHER ROUNDUP
NATIONAL WEATHER SERVICE NORTHERN INDIANA
400 AM EDT MON JUL 14 2014

NOTE: "FAIR" INDICATES FEW OR NO CLOUDS BELOW 12,000 FEET WITH NO
SIGNIFICANT WEATHER AND/OR OBSTRUCTIONS TO VISIBILITY.

* THESE STATIONS ARE NOT UNDER NWS QUALITY CONTROL. THEY ALSO MAY NOT
  REPORT WEATHER SUCH AS PRECIPITATION OR FOG.

INZ001>027-140900-
NORTHERN INDIANA

CITY           SKY/WX    TMP DP  RH WIND       PRES   REMARKS
VALPARAISO     CLOUDY    67  63  87 NW5       29.90S
KNOX*          CLOUDY    69  65  86 W5        29.90R
SOUTH BEND     MOCLDY    71  63  75 W9        29.89R
GOSHEN         CLOUDY    71  67  87 SW6       29.88S
MONTICELLO*    MOCLDY    70  67  92 W6        29.90R
WARSAW*        MOCLDY    70  66  88 W6        29.89R
ANGOLA*        PTCLDY    70  63  78 CALM      29.88S
FORT WAYNE     MOCLDY    69  65  86 S8        29.90R
PERU/GRISSOM   PTCLDY    64  64 100 SW2       29.90R

$$
INZ028>050-140900-
CENTRAL INDIANA

CITY           SKY/WX    TMP DP  RH WIND       PRES   REMARKS
LAFAYETTE      FOG       65  65 100 W3        29.90F VSB 1/2
KOKOMO*        PTCLDY    64  61  88 CALM      29.90F
MUNCIE*        PTCLDY    69  65  86 CALM      29.91S
INDIANAPOLIS   CLOUDY    70  69  97 SW5       29.90F

$$
MIZ043>046-050>051-056>058-064>065-071>073-077>080-140900-
SOUTHWEST LOWER MICHIGAN

CITY           SKY/WX    TMP DP  RH WIND       PRES   REMARKS
BATTLE CREEK   MOCLDY    66  64  93 CALM      29.87F
BENTON HARBOR  CLEAR     63  63 100 CALM      29.88R FOG
COLDWATER*     CLOUDY    67  65  92 CALM      29.87F
HILLSDALE*     MOCLDY    65  65  99 CALM      29.88F
HOLLAND        MOCLDY    64  60  87 CALM      29.88R
GRAND RAPIDS   MOCLDY    65  62  90 CALM      29.87S
KALAMAZOO      PTCLDY    66  63  90 CALM      29.87S
STURGIS*       PTCLDY    68  66  94 S3        29.87S
THREE RIVERS*  FAIR      67  66  96 CALM      29.87S

$$
OHZ001>008-015>018-024>025-140900-
NORTHWEST OHIO

CITY           SKY/WX    TMP DP  RH WIND       PRES   REMARKS
DEFIANCE       CLOUDY    66  63  90 S3        29.88S
FINDLAY        PTCLDY    65  63  93 S3        29.88S
TOLEDO EXPRESS PTCLDY    65  62  90 CALM      29.86F
TOLEDO METCALF PTCLDY    66  61  84 CALM      29.87F
LIMA           MOCLDY    70  66  87 SW5       29.90S

$$
&&


USA.gov is the U.S. government's official web portal to all federal, state and local government web resources and services.